This demonstration page uses our WeatherBlox Daily Observations layout. Learn more.

Left ArrowRight Arrow

Hourly Observations for August 26, 2021

Temp ( °F °C ) Dew Point ( °F °C ) Humidity (%) Winds ( mph kmh ) Pressure ( in mb ) Visibility ( mi km ) Precip ( " mm )
12:59 am 00:59 Mostly Clear 78 25.6 74 23.3 87 87 Calm 30.12 1020 9 14 0.00 0.00
1:59 am 01:59 Mostly Clear 77 25 74 23.3 90 90 SSW 5 7 30.13 1020 9 14 0.00 0.00
2:59 am 02:59 Partly Cloudy 78 25.6 74 23.3 87 87 SW 3 6 30.12 1020 9 14 0.00 0.00
3:59 am 03:59 Partly Cloudy 79 26.1 73 22.8 82 82 SW 3 6 30.12 1020 9 14 0.00 0.00
4:59 am 04:59 Partly Cloudy 79 26.1 72 22.2 79 79 WSW 5 7 30.13 1020 9 14 0.00 0.00
5:59 am 05:59 Partly Cloudy 77 25 72 22.2 85 85 Calm 30.13 1020 9 14 0.00 0.00
6:59 am 06:59 Partly Cloudy 77 25 73 22.8 88 88 Calm 30.14 1021 7 11 0.00 0.00
7:59 am 07:59 Partly Cloudy 81 27.2 75 23.9 82 82 SSW 3 6 30.16 1021 7 11 0.00 0.00
8:59 am 08:59 Hazy 83 28.3 75 23.9 77 77 W 5 7 30.16 1021 6 10 0.00 0.00
9:59 am 09:59 Mostly Sunny 87 30.6 74 23.3 65 65 NNW 3 6 30.16 1022 7 11 0.00 0.00
10:59 am 10:59 Hazy 89 31.7 75 23.9 63 63 Calm 30.16 1022 6 10 0.00 0.00
11:59 am 11:59 Partly Cloudy 91 32.8 73 22.8 56 56 NNW 6 9 30.16 1021 7 11 0.00 0.00
12:59 pm 12:59 Partly Cloudy 92 33.3 72 22.2 52 52 NNW 7 11 30.15 1021 8 13 0.00 0.00
1:59 pm 13:59 Partly Cloudy 93 33.9 72 22.2 50 50 NNW 3 6 30.14 1021 7 11 0.00 0.00
2:59 pm 14:59 Mostly Cloudy 91 32.8 74 23.3 57 57 E 6 9 30.12 1020 7 11 0.00 0.00
3:59 pm 15:59 Mostly Cloudy 92 33.3 76 24.4 60 60 ENE 9 15 30.10 1019 7 11 0.00 0.00
4:59 pm 16:59 Mostly Cloudy 91 32.8 77 25 64 64 NE 8 13 30.09 1019 7 11 0.00 0.00
5:59 pm 17:59 Mostly Cloudy 90 32.2 77 25 66 66 E 7 11 30.09 1019 7 11 0.00 0.00
6:59 pm 18:59 Mostly Cloudy 89 31.7 78 25.6 70 70 SSW 5 7 30.08 1019 7 11 0.00 0.00
7:59 pm 19:59 Partly Cloudy 87 30.6 74 23.3 65 65 SW 6 9 30.09 1019 8 13 0.00 0.00
8:59 pm 20:59 Partly Cloudy 85 29.4 74 23.3 70 70 SSW 5 7 30.10 1019 9 14 0.00 0.00
9:59 pm 21:59 Clear 84 28.9 72 22.2 67 67 SSW 5 7 30.13 1020 9 14 0.00 0.00
10:59 pm 22:59 Clear 83 28.3 73 22.8 72 72 SW 6 9 30.13 1020 9 14 0.00 0.00
11:59 pm 23:59 Clear 83 28.3 73 22.8 72 72 SW 6 9 30.14 1021 9 14 0.00 0.00

Powered by AerisWeather